Regional Weather Roundup
Issued by NWS

Home | Current Version | Previous Version | Text Only | Print | Product List | Glossary Off
Versions: 1 2 3 4 5 6 7 8 9 10 11 12 13 14 15 16 17 18 19 20 21 22 23 24 25 26 27 28 29 30 31 32 33 34 35 36 37 38 39 40 41 42 43 44 45 46 47 48 49 50

000
ASUS43 KLSX 221157
RWRMO

WEATHER SUMMARY FOR MISSOURI
NATIONAL WEATHER SERVICE SPRINGFIELD MO
700 AM CDT FRI SEP 22 2017

NOTE: "FAIR" INDICATES FEW OR NO CLOUDS BELOW 12,000 FEET WITH NO
       SIGNIFICANT WEATHER AND/OR OBSTRUCTIONS TO VISIBILITY.
       CURRENT SKY AND/OR WEATHER CONDITIONS ARE NOT AVAILABLE FOR
       CHILLICOTHE AND FARMINGTON.

MOZ001>031-035>038-043-044-053-054-221300-
...NORTHERN AND WESTERN MISSOURI...

CITY           SKY/WX    TMP DP  RH WIND       PRES   REMARKS
KANSAS CTY INT PTCLDY    73  70  90 S12       29.95R
6HR MIN TEMP:  73; 6HR MAX TEMP:  80;

LEE`S SUMMIT   CLEAR     72  70  93 SE12      29.98R
6HR MIN TEMP:  72; 6HR MAX TEMP:  78;

ST JOSEPH      CLEAR     74  71  91 S9        29.92R
6HR MIN TEMP:  74; 6HR MAX TEMP:  80;

CHILLICOTHE      N/A     73  69  87 S8        29.99R
6HR MIN TEMP:  73; 6HR MAX TEMP:  78;


$$
MOZ066>068-077>081-088>096-101>105-221300-
...SOUTHWEST MISSOURI...

CITY           SKY/WX    TMP DP  RH WIND       PRES   REMARKS
SPRINGFIELD    CLEAR     71  69  93 SE12      30.04R
6HR MIN TEMP:  70; 6HR MAX TEMP:  75;

JOPLIN         CLEAR     71  70  96 SE7       30.00R
6HR MIN TEMP:  71; 6HR MAX TEMP:  76;

BRANSON        PTCLDY    68  66  94 S5        30.07R

$$
MOZ032>034-039>042-045>050-055>058-069>072-221300-
...CENTRAL MISSOURI...

CITY           SKY/WX    TMP DP  RH WIND       PRES   REMARKS
COLUMBIA       NOT AVBL
JEFFERSON CITY PTCLDY    70  66  87 SE5       30.03R
6HR MIN TEMP:  70; 6HR MAX TEMP:  77;

ROLLA          CLEAR     71  68  90 S7        30.07R
6HR MIN TEMP:  71; 6HR MAX TEMP:  74;

SEDALIA        CLEAR     71  70  96 SE8       30.02R
6HR MIN TEMP:  71; 6HR MAX TEMP:  77;

WARRENSBURG    CLEAR     70  66  88 SE7       29.99R

$$
MOZ051-052-059>065-221300-
...EAST CENTRAL MISSOURI...

CITY           SKY/WX    TMP DP  RH WIND       PRES   REMARKS
ST LOUIS INTL  PTCLDY    72  69  90 E6        30.07R
6HR MIN TEMP:  71; 6HR MAX TEMP:  80;


$$
MOZ072>076-082>087-097>100-106>115-221300-
...SOUTH CENTRAL AND SOUTHEAST MISSOURI...

CITY           SKY/WX    TMP DP  RH WIND       PRES   REMARKS
CAPE GIRARDEAU FOG       65  64  97 CALM      30.06R VSB 1/4
6HR MIN TEMP:  65; 6HR MAX TEMP:  74;

FARMINGTON     PTCLDY    66  64  94 CALM      30.09R FOG
POPLAR BLUFF   CLEAR     66  66 100 CALM      30.05R FOG
6HR MIN TEMP:  66; 6HR MAX TEMP:  70;

WEST PLAINS    CLEAR     68  65  90 CALM      30.08S
6HR MIN TEMP:  67; 6HR MAX TEMP:  74;


$$


USA.gov is the U.S. government's official web portal to all federal, state and local government web resources and services.